Theta_e
337 333 331 325 321 322 315 309 304 304 304 304 305 306 307 307 307 308 308 307 307 306 306 305 305 305 304 304 304 304 309 307 307 306 305 310 309 309 312 312 312 314 316
326 331 328 328 324 321 319 313 306 304 303 303 304 305 305 306 307 307 307 307 307 307 306 305 304 304 304 304 314 316 315 310 308 305 304 306 307 311 312 310 307 306 310
327 326 325 328 326 322 322 319 310 305 303 302 303 304 304 305 305 306 306 306 306 306 306 306 305 304 303 316 318 318 316 307 307 304 305 306 306 305 306 305 305 305 305
329 327 329 328 323 327 323 321 315 307 305 303 302 302 303 303 304 305 305 306 306 306 306 306 305 304 303 312 313 314 314 310 309 305 305 308 310 311 308 305 305 305 305
325 325 325 325 327 326 325 323 320 311 306 305 303 302 301 302 303 304 305 305 305 305 305 306 305 304 303 305 306 311 314 312 310 304 307 305 305 306 305 305 304 304 304
324 324 324 323 324 323 323 323 321 315 310 307 306 303 300 301 301 302 303 304 304 304 304 304 304 303 302 304 304 314 313 312 306 304 301 301 300 300 302 302 300 300 301
322 322 322 322 323 322 320 319 319 316 313 310 308 304 301 300 300 301 301 302 303 303 303 303 303 302 301 301 301 306 311 310 306 301 299 299 299 298 298 298 298 299 299
319 318 318 318 317 317 318 316 315 315 314 311 308 303 299 300 300 300 301 302 302 302 303 303 302 302 301 300 300 300 304 309 308 300 299 298 298 297 297 297 297 297 297
314 315 315 316 316 316 314 314 313 312 312 311 309 304 298 299 300 301 301 301 301 302 302 302 302 302 302 300 299 298 298 301 303 298 298 297 296 296 295 295 295 296 297
309 311 310 311 312 312 312 311 311 309 309 308 307 306 302 299 299 300 301 301 301 301 301 302 302 301 301 301 299 298 297 297 298 297 297 296 295 295 295 295 295 296 296
302 303 305 306 307 308 308 307 307 307 306 306 305 304 303 301 299 298 299 299 300 301 302 302 301 301 301 301 300 298 296 296 296 296 296 296 294 294 294 295 295 295 295
300 300 301 301 301 302 303 305 305 305 304 304 304 302 301 300 299 298 298 298 298 299 300 301 301 302 301 301 301 299 297 296 296 296 295 295 294 294 294 294 294 294 294
297 297 297 299 299 298 299 299 300 303 303 302 302 302 302 300 299 299 298 297 298 298 299 299 300 301 301 301 300 300 299 297 297 296 295 295 294 292 292 293 294 294 294
290 289 290 291 294 296 297 297 297 297 298 300 300 300 300 300 300 299 298 297 297 297 298 299 299 299 300 300 300 299 298 298 298 297 296 295 294 293 292 292 293 293 294
287 288 287 288 288 288 289 291 294 296 296 296 296 297 299 299 299 298 298 298 297 295 296 296 297 298 298 299 299 299 299 299 298 297 296 295 294 292 292 292 293 293 293
288 288 288 287 287 287 287 287 288 287 288 292 295 295 295 297 298 298 297 297 297 296 295 296 296 296 296 297 297 298 298 298 297 297 295 295 294 293 292 292 292 293 294
287 286 286 287 287 286 286 286 286 287 287 287 287 287 292 295 294 295 296 296 296 296 296 296 296 296 296 296 296 297 297 297 297 296 295 294 293 293 292 292 292 293 294
286 286 286 286 286 286 286 286 286 286 285 286 286 286 286 287 288 294 295 294 295 294 294 295 295 295 296 296 296 296 296 297 297 296 295 294 293 292 291 291 291 293 293
285 285 285 285 285 285 285 285 285 285 285 285 285 285 285 286 286 286 286 292 295 294 293 293 294 294 295 295 295 295 296 296 296 296 295 294 293 292 291 291 291 292 293
285 285 284 284 284 284 284 284 283 284 284 284 284 285 285 285 285 285 286 286 286 290 294 293 292 292 293 295 295 295 295 295 295 296 295 294 293 292 291 290 290 291 292
284 284 283 283 283 282 282 282 282 282 283 283 283 283 284 284 285 284 284 285 285 285 285 290 293 291 291 292 294 295 294 294 294 295 295 294 294 293 291 291 290 291 291
283 282 282 282 283 283 282 279 279 279 279 280 281 282 283 283 283 283 284 284 284 284 285 285 286 292 292 291 292 293 293 293 293 294 294 294 294 294 293 291 291 291 291
282 282 282 282 282 282 280 279 276 277 277 278 278 279 280 281 281 281 282 282 283 283 284 284 285 286 290 292 290 290 291 292 293 292 292 294 294 294 294 292 291 290 291
282 281 280 279 279 278 276 275 274 274 275 276 275 276 276 277 278 278 279 280 281 282 283 283 284 285 285 287 291 290 290 291 291 291 291 292 294 294 294 294 293 290 290
280 279 278 276 275 274 272 271 270 270 271 272 272 273 273 273 274 276 277 278 279 281 282 283 283 284 284 284 288 291 289 288 289 289 290 290 290 292 293 293 293 291 289
278 276 276 273 272 272 271 271 269 269 270 270 271 271 272 273 274 275 276 276 277 278 280 281 283 283 284 284 284 290 290 289 288 288 288 289 288 288 287 290 292 292 289
Wind_Speed
30 29 28 27 24 24 22 22 21 20 20 20 19 18 17 16 14 13 12 11 12 12 13 13 13 12 13 12 12 14 13 14 11 11 11 11 11 13 13 16 17 21 20
27 29 29 30 26 24 24 23 23 22 22 22 22 21 20 19 17 15 14 13 13 13 13 13 13 13 11 10 8 9 13 10 9 10 13 12 12 12 13 18 19 18 20
26 29 29 31 30 23 25 25 25 25 25 25 25 24 23 21 20 18 17 15 15 14 14 13 14 14 12 9 11 11 12 12 12 11 11 12 14 14 15 15 15 15 17
25 26 30 33 27 25 25 25 26 28 27 27 27 26 26 25 24 22 21 19 18 16 15 14 14 14 14 15 18 13 15 17 12 11 9 10 9 10 13 13 14 15 15
23 24 25 25 27 26 25 26 27 28 28 29 29 29 29 29 27 26 25 23 21 19 18 17 16 16 16 17 17 17 14 13 14 9 11 14 14 14 13 11 12 12 12
20 23 22 23 25 27 27 28 29 29 30 28 29 31 32 31 30 29 29 27 24 22 21 19 18 17 18 19 18 14 17 15 15 13 15 14 15 14 13 13 10 11 12
16 17 18 20 24 28 27 27 28 30 31 30 30 33 34 34 34 33 33 30 29 27 25 23 20 20 21 21 21 19 17 17 15 16 15 15 15 15 14 14 14 13 13
15 15 16 19 21 25 27 28 28 30 31 32 33 33 29 35 39 38 37 35 33 31 29 27 24 23 23 23 23 22 23 19 20 16 12 12 13 14 15 14 14 14 13
12 13 11 15 20 22 25 26 28 30 31 33 34 30 12 17 23 30 38 40 37 35 33 30 28 26 25 25 25 25 25 25 25 19 15 15 15 15 15 15 14 14 15
13 13 15 16 17 20 23 24 25 28 31 34 34 37 40 36 15 12 18 26 35 38 37 34 32 30 28 27 26 25 26 29 29 23 20 18 17 17 16 16 16 16 15
7 10 14 17 19 20 21 22 23 25 29 33 36 37 38 41 45 40 34 31 29 27 30 34 35 32 30 29 28 27 28 29 30 25 24 21 20 19 19 18 18 17 16
11 10 11 12 14 17 21 25 23 24 27 31 34 36 39 37 36 42 45 48 46 41 37 35 35 33 33 32 29 29 30 30 30 28 27 25 22 21 21 20 19 18 16
18 18 17 15 16 17 17 19 23 27 26 29 32 36 37 41 42 43 42 41 43 42 42 40 36 37 36 35 33 31 31 32 32 31 29 27 25 24 23 22 20 19 17
17 18 18 19 17 18 17 18 21 23 27 30 31 33 36 38 39 40 44 42 43 44 44 40 36 37 37 37 36 35 35 33 33 33 31 30 28 27 26 24 23 21 20
18 18 19 20 19 18 18 19 20 20 23 26 29 33 36 36 36 38 41 41 43 40 44 41 40 38 37 38 39 39 38 36 36 36 34 32 31 30 28 27 26 24 22
22 23 23 25 25 24 23 22 22 22 23 23 24 27 30 34 36 36 37 39 41 46 49 43 41 40 40 39 38 40 41 40 39 38 37 35 34 33 32 30 29 27 25
22 24 25 25 28 30 29 28 28 28 28 29 26 26 26 25 31 36 38 37 40 41 50 52 48 44 42 43 40 37 40 41 42 41 39 39 38 36 35 34 32 29 28
25 28 30 31 31 33 34 33 35 35 34 34 34 34 32 28 28 28 31 39 41 40 44 51 48 50 49 48 46 44 43 43 44 43 42 42 40 39 38 37 36 33 31
32 34 35 38 39 40 41 39 39 41 42 42 39 37 37 35 35 32 30 32 35 39 43 46 50 49 49 48 46 47 47 46 48 45 44 44 43 43 43 41 39 37 35
40 43 46 47 48 48 47 47 47 45 45 46 46 46 43 40 39 37 36 36 35 35 37 43 47 46 47 51 47 49 49 50 48 47 48 48 48 48 46 44 43 42 38
44 48 51 53 54 54 52 49 45 46 48 50 49 49 48 49 47 42 40 40 38 38 37 40 44 43 46 49 54 54 52 51 51 50 51 53 53 50 50 49 49 46 42
48 50 50 51 52 53 53 44 33 37 43 48 52 53 52 52 51 51 48 43 41 41 41 41 43 44 48 43 48 49 50 51 54 56 57 58 54 55 54 55 54 49 47
48 50 50 51 53 53 52 51 41 39 44 47 51 54 57 56 52 49 49 49 49 45 44 44 45 48 46 43 37 44 49 51 57 48 43 56 57 57 57 59 56 52 49
47 49 51 52 54 54 51 49 43 44 51 54 53 50 47 50 51 44 44 46 50 52 52 48 49 52 46 44 45 41 43 45 46 52 53 54 56 60 62 60 57 55 54
47 48 50 51 50 50 44 38 33 35 40 43 44 45 45 47 47 41 43 47 49 54 54 48 52 52 46 43 43 46 43 42 48 49 54 53 50 57 59 59 60 59 57
46 47 48 46 42 41 35 32 28 30 35 38 38 36 35 35 37 37 40 46 51 57 49 48 50 53 50 46 43 49 53 51 50 38 50 50 53 47 43 54 56 59 61
Wind_Direction
239 245 253 260 259 260 259 254 248 243 242 243 244 248 250 253 257 263 270 274 277 278 280 284 285 283 279 273 264 257 250 262 240 233 224 217 210 215 210 212 218 223 224
248 246 249 259 264 260 263 259 253 245 245 244 244 245 247 249 251 254 258 263 268 272 275 276 279 279 277 269 248 237 249 251 246 246 234 221 224 215 214 222 226 229 223
260 261 254 255 262 268 268 262 255 248 244 243 245 245 247 249 251 252 255 258 263 267 271 273 272 271 265 211 223 230 236 267 264 258 232 227 231 235 232 236 233 225 219
255 258 256 254 256 267 267 265 261 256 250 247 247 248 248 248 249 251 254 257 260 264 268 270 270 264 252 230 225 232 248 265 249 248 219 210 215 220 235 237 232 227 224
260 261 261 261 252 258 266 267 264 259 256 253 252 249 247 247 248 251 254 257 259 262 265 267 267 262 258 248 249 238 236 241 243 228 222 225 224 232 241 234 226 226 227
266 269 266 264 263 258 262 266 266 261 258 256 256 255 251 248 247 249 251 252 255 256 258 260 261 260 256 244 242 215 221 236 255 247 250 249 242 236 231 231 226 220 220
269 272 274 274 273 266 268 274 272 266 263 260 257 254 253 252 250 249 250 252 253 254 255 256 256 254 251 250 243 232 224 239 249 265 268 251 249 252 251 247 246 240 233
269 273 279 277 276 277 276 272 271 271 268 262 256 254 256 255 253 252 252 252 253 252 253 255 255 255 253 249 248 245 238 232 237 268 270 261 254 248 249 251 252 251 247
278 271 269 274 272 274 277 275 273 274 274 269 263 250 251 248 261 256 252 252 251 252 254 253 255 255 254 252 248 246 243 238 246 265 264 265 256 247 242 243 244 243 243
277 272 273 263 259 270 276 279 277 271 272 271 268 261 253 255 278 286 268 258 252 251 252 253 254 253 254 253 249 246 244 242 253 259 258 262 254 248 245 243 243 242 243
300 282 275 272 263 265 269 275 275 274 271 272 269 269 267 261 258 263 273 272 272 269 262 258 255 253 253 251 248 246 245 246 253 258 256 257 250 247 247 245 242 241 240
344 322 308 299 289 282 273 269 271 267 267 269 272 270 267 263 261 263 265 269 274 274 273 267 259 255 251 249 248 247 248 250 253 254 255 253 246 244 244 245 245 243 240
4 6 360 342 320 306 297 289 279 270 268 267 268 268 269 267 266 265 266 272 273 273 272 270 265 261 253 249 249 248 248 248 251 253 254 252 244 242 241 239 239 241 241
1 359 356 353 349 345 334 316 295 287 278 269 268 268 267 268 268 267 266 265 269 271 270 268 267 264 258 254 253 251 248 248 249 250 250 250 244 242 239 236 235 235 238
350 348 344 340 339 340 337 332 329 319 296 287 281 274 267 266 266 267 269 267 267 267 267 267 265 263 265 263 259 256 252 250 248 248 247 246 244 242 239 237 237 238 240
335 333 329 329 330 329 327 324 319 320 314 310 304 291 281 274 269 267 267 270 266 267 269 265 264 264 263 264 262 258 256 252 249 246 246 245 242 240 239 237 237 239 241
327 324 321 320 320 320 321 320 317 312 308 306 304 302 298 293 282 275 268 265 268 269 269 269 266 261 257 260 259 259 256 253 250 246 243 242 241 239 239 237 238 240 243
323 320 319 318 314 312 311 311 310 309 307 304 302 301 297 296 293 286 281 276 269 266 270 273 269 263 261 260 262 261 260 257 252 247 243 241 240 238 238 238 237 238 241
318 315 313 311 310 309 306 305 302 301 299 298 296 293 293 294 291 291 290 284 282 277 269 270 270 265 259 257 258 258 256 253 251 249 246 242 240 237 237 237 238 240 241
316 315 314 312 309 306 305 303 302 298 293 290 289 288 286 285 285 287 287 286 286 282 279 272 269 269 263 255 254 256 253 251 249 247 246 243 240 237 236 236 236 239 241
311 310 309 308 308 307 307 307 304 300 297 292 287 283 283 281 279 277 278 278 282 283 281 278 273 268 264 258 247 247 252 254 251 248 245 243 240 238 236 234 235 236 238
308 307 306 305 303 302 304 303 299 295 292 290 288 287 283 280 279 277 273 270 270 274 275 275 273 270 262 259 260 251 250 251 249 246 243 243 241 241 239 236 235 235 236
308 307 306 304 302 300 299 297 298 290 284 281 282 284 284 282 282 279 277 275 270 264 263 268 269 268 268 259 256 258 252 248 252 249 249 248 244 244 243 240 237 235 236
310 309 308 306 303 302 301 298 297 290 285 282 279 276 278 280 278 279 277 274 273 271 262 258 260 266 269 269 258 254 258 262 260 254 251 247 250 247 244 244 240 235 235
312 311 310 309 309 308 308 304 299 293 289 287 285 283 281 279 279 279 277 275 270 265 265 266 261 259 262 265 263 254 242 240 246 244 240 240 241 247 246 246 244 237 233
314 314 314 313 310 308 310 306 300 296 294 295 294 292 289 287 286 282 276 272 271 268 269 266 264 262 257 258 254 249 251 235 236 243 243 235 236 239 238 241 242 240 231